Skip Page Navigation
NASA JPL Caltech
NASA Logo - Jet Propulsion Laboratory + View the NASA Portal
+ Center for Near-Earth Object Studies
JPL Home Earth Solar System Stars & Galaxies Technology
JPL Solar System Dynamics
BODIES ORBITS EPHEMERIDES TOOLS PHYSICAL DATA DISCOVERY FAQ SITE MAP
IMPORTANT: The SSD Announcement email list is now available. Major changes are coming in the near future, including possible hostname and/or URL changes. To be notified of such changes, subscribe to this email list.

Please visit this page for more details.


JPL Small-Body Database Browser
Search: [ help ]  
452837 (2006 RW100)
Classification: Main-belt Asteroid          SPK-ID: 2452837
Ephemeris | Orbit Diagram | Orbital Elements | Mission Design | Physical Parameters | Discovery Circumstances ]

[ show orbit diagram ]
Orbital Elements at Epoch 2458600.5 (2019-Apr-27.0) TDB
Reference: JPL 8 (heliocentric ecliptic J2000)
 Element Value Uncertainty (1-sigma)   Units 
e .2020148294233983 1.0589e-07  
a 2.553148525343564 4.1453e-08 au
q 2.037374661503683 2.6555e-07 au
i 8.794337415138795 8.4852e-06 deg
node 47.09481581866257 8.2591e-05 deg
peri 239.3404005471779 8.5849e-05 deg
M 78.72460227819047 3.398e-05 deg
tp 2458274.647902242029
(2018-Jun-05.14790224)
0.00013633 TDB
period 1490.090159850418
4.08
3.629e-05
9.936e-08
d
yr
n .2415961192818953 5.8839e-09 deg/d
Q 3.068922389183446 4.9828e-08 au
  Orbit Determination Parameters
   # obs. used (total)      78  
   data-arc span      6350 days (17.39 yr)  
   first obs. used      2001-03-19  
   last obs. used      2018-08-07  
   planetary ephem.      DE431  
   SB-pert. ephem.      SB431-N16  
   condition code      0  
   norm. resid. RMS      .68888  
   source      ORB  
   producer      Otto Matic  
   solution date      2018-Oct-04 12:22:00  

Additional Information
 Earth MOID = 1.03716 au 
 Jupiter MOID = 2.13411 au 
 T_jup = 3.394 
[ show covariance matrix ]

Ephemeris | Orbit Diagram | Orbital Elements | Mission Design | Physical Parameters | Discovery Circumstances ]

Physical Parameter Table
Parameter Symbol Value Units Sigma Reference Notes
absolute magnitude H 16.8   n/a MPO456157  

452837 (2006 RW100)          Discovered 2006-Sep-14 by CSS at Catalina
Reference: Last Updated: 2016-01-04

Alternate Designations
 2006 RW100 = 2010 KZ52 
Ephemeris | Orbit Diagram | Orbital Elements | Mission Design | Physical Parameters | Discovery Circumstances ]
ABOUT SSD CREDITS/AWARDS PRIVACY/COPYRIGHT GLOSSARY LINKS
FirstGov 2019-Dec-14 17:31 UT
(server date/time)  
NASA Home Page
Site Manager:   Ryan S. Park
Webmaster  Alan B. Chamberlin